Content
SEND FEEDBACK

Daily
Averages
Monthly
Summary
Canada

QUEBEC CITY, QUEBEC


Home > North America > Canada > Quebec
Elevation: 239 feet     Latitude: 46 48N     Longitude: 071 23W

WEATHER
 
SELECT A DAY
Number of Records: 194,992;   Date Range: 6/30/96 - 9/29/14
 
SHARE

PRINT THIS DATA

[ ← Previous Day ]
WEATHER ALMANAC - MARCH 24, 2014
[ Next Day → ]
[ °C ]   °F
Weather ElementAverageHighLow
Temperature5.2 °F18 °F (5:00 pm)-17 °F (5:00 am)
Dewpoint-7 °F1.4 °F (2:00 pm)-22 °F (5:00 am)
Humidity54.8 %73 % (8:00 am)29 % (5:00 pm)
Barometer30.10 in30.16 in (1:00 am)30.02 in (4:00 pm)
Wind Speed10.4 mph20.7 mph (4:00 pm)
Wind Gust26.5 mph (4:00 pm)
Weather ElementAverage
Visibility23.9 mi
Wind DirectionWSW (235.5 °)

Weather ElementTotal
Precipitation---
Heating Degree Days64.5 (Base 65)
Averaged from 30 records on March 24, 2014
WEATHER CONDITIONS BREAKOUT
WIND DIRECTION BREAKOUT
WEATHER BY HOUR - MARCH 24, 2014
[ °C ]   °F
Local TimeTemperatureDewpointHumidityBarometerVisibilityWind DirectionWind SpeedGust SpeedPrecipitationEventsConditions
1:00 AM-4.0 °F-14.8 °F60 %30.16 in15.0 miWest (270°)6.9 mphClear
2:00 AM-13.0 °F-19.0 °F63 %30.16 inWest (260°)3.5 mph
2:00 AM-4.0 °F-13.0 °F65 %30.16 in15.0 miSW (230°)8.1 mphClear
3:00 AM-4.0 °F-13.0 °F65 %30.15 in15.0 miSW (230°)11.5 mphClear
4:00 AM-4.0 °F-13.0 °F65 %30.14 in15.0 miSW (230°)10.4 mphClear
5:00 AM-17.0 °F-22.0 °F67 %30.14 inWest (260°)4.6 mph
5:00 AM-5.8 °F-14.8 °F65 %30.14 in15.0 miWSW (240°)11.5 mphClear
6:00 AM-7.6 °F-14.8 °F71 %30.15 in15.0 miWSW (240°)6.9 mphClear
7:00 AM-7.6 °F-16.6 °F65 %30.15 in30.0 miWSW (240°)6.9 mphPartly Cloudy
8:00 AM-7.0 °F-11.0 °F73 %30.16 inSW (220°)2.3 mph
8:00 AM-0.4 °F-11.2 °F60 %30.16 in30.0 miSW (220°)3.5 mphPartly Cloudy
9:00 AM1.4 °F-9.4 °F61 %30.15 in30.0 miSW (230°)9.2 mphPartly Cloudy
10:00 AM6.8 °F-7.6 °F52 %30.15 in30.0 miSW (230°)10.4 mphPartly Cloudy
11:00 AM9.0 °F-7.0 °F33 %30.14 inWSW (240°)9.2 mph
11:00 AM8.6 °F-5.8 °F52 %30.13 in30.0 miSW (230°)15.0 mphPartly Cloudy
12:00 PM12.2 °F-2.2 °F53 %30.11 in30.0 miSW (230°)18.4 mphPartly Cloudy
1:00 PM15.8 °F-2.2 °F45 %30.08 in30.0 miWest (260°)18.4 mphPartly Cloudy
2:00 PM16.0 °F0.0 °F33 %30.06 inWSW (250°)13.8 mph
2:00 PM15.8 °F1.4 °F53 %30.06 in30.0 miSW (220°)18.4 mph24.2 mphScattered Clouds
3:00 PM17.6 °F-0.4 °F45 %30.04 in30.0 miWest (270°)13.8 mph23.0 mphScattered Clouds
4:00 PM17.6 °F1.4 °F49 %30.02 in30.0 miSW (220°)20.7 mph26.5 mphMostly Cloudy
5:00 PM18.0 °F0.0 °F29 %30.02 inSW (230°)10.4 mph
5:00 PM17.6 °F1.4 °F49 %30.02 in30.0 miSW (220°)19.6 mph25.3 mphMostly Cloudy
6:00 PM17.6 °F1.4 °F49 %30.02 in30.0 miWSW (240°)17.3 mph24.2 mphPartly Cloudy
7:00 PM14.0 °F-0.4 °F53 %30.03 in30.0 miSW (230°)13.8 mphPartly Cloudy
8:00 PM13.0 °F-2.0 °F36 %30.04 inWSW (250°)8.1 mph
9:00 PM10.4 °F-2.2 °F57 %30.05 in15.0 miSW (220°)8.1 mphPartly Cloudy
10:00 PM8.6 °F-4.0 °F57 %30.04 in15.0 miSSW (210°)6.9 mphPartly Cloudy
11:00 PM1.0 °F-5.0 °F63 %30.04 inCalm
11:00 PM8.6 °F-4.0 °F57 %30.04 in15.0 miSSW (210°)5.8 mphPartly Cloudy
Hourly data recorded from CYQB, located miles away from Quebec City, Quebec







STORIES FROM OUR PARTNERS